TimeCST,TemperatureF,Dew PointF,Humidity,Sea Level PressureIn,VisibilityMPH,Wind Direction,Wind SpeedMPH,Gust SpeedMPH,PrecipitationIn,Events,Conditions,WindDirDegrees,DateUTC
12:16 AM,30.2,19.4,64,30.36,10.0,Calm,Calm,-,N/A,,Clear,0,2012-11-15 06:16:00
12:35 AM,28.4,19.4,69,30.34,10.0,NE,4.6,-,N/A,,Clear,50,2012-11-15 06:35:00
12:55 AM,30.2,21.2,69,30.34,10.0,Calm,Calm,-,N/A,,Clear,0,2012-11-15 06:55:00
1:15 AM,28.4,19.4,69,30.35,10.0,Calm,Calm,-,N/A,,Clear,0,2012-11-15 07:15:00
1:35 AM,28.4,19.4,69,30.34,10.0,ENE,3.5,-,N/A,,Clear,60,2012-11-15 07:35:00
1:55 AM,32.0,23.0,69,30.34,10.0,ENE,4.6,-,N/A,,Clear,60,2012-11-15 07:55:00
2:15 AM,30.2,19.4,64,30.34,10.0,Calm,Calm,-,N/A,,Clear,0,2012-11-15 08:15:00
2:35 AM,28.4,19.4,69,30.34,10.0,Calm,Calm,-,N/A,,Clear,0,2012-11-15 08:35:00
2:55 AM,28.4,19.4,69,30.34,10.0,Calm,Calm,-,N/A,,Clear,0,2012-11-15 08:55:00
3:15 AM,28.4,19.4,69,30.33,10.0,Calm,Calm,-,N/A,,Clear,0,2012-11-15 09:15:00
3:35 AM,28.4,19.4,69,30.34,10.0,Calm,Calm,-,N/A,,Clear,0,2012-11-15 09:35:00
3:55 AM,26.6,17.6,69,30.34,10.0,Calm,Calm,-,N/A,,Clear,0,2012-11-15 09:55:00
4:15 AM,26.6,17.6,69,30.35,10.0,Calm,Calm,-,N/A,,Clear,0,2012-11-15 10:15:00
4:35 AM,26.6,17.6,69,30.35,10.0,Calm,Calm,-,N/A,,Clear,0,2012-11-15 10:35:00
4:55 AM,26.6,17.6,69,30.35,10.0,Calm,Calm,-,N/A,,Clear,0,2012-11-15 10:55:00
5:15 AM,26.6,17.6,69,30.35,10.0,Calm,Calm,-,N/A,,Clear,0,2012-11-15 11:15:00
5:35 AM,26.6,17.6,69,30.35,10.0,Calm,Calm,-,N/A,,Clear,0,2012-11-15 11:35:00
5:55 AM,26.6,17.6,69,30.36,10.0,Calm,Calm,-,N/A,,Clear,0,2012-11-15 11:55:00
6:15 AM,26.6,17.6,69,30.37,10.0,Calm,Calm,-,N/A,,Clear,0,2012-11-15 12:15:00
6:35 AM,26.6,17.6,69,30.37,8.0,Calm,Calm,-,N/A,,Clear,0,2012-11-15 12:35:00
6:55 AM,26.6,17.6,69,30.38,7.0,Calm,Calm,-,N/A,,Clear,0,2012-11-15 12:55:00
7:15 AM,28.4,19.4,69,30.38,8.0,Calm,Calm,-,N/A,,Clear,0,2012-11-15 13:15:00
7:35 AM,28.4,19.4,69,30.38,10.0,Calm,Calm,-,N/A,,Clear,0,2012-11-15 13:35:00
7:55 AM,30.2,21.2,69,30.38,10.0,Calm,Calm,-,N/A,,Clear,0,2012-11-15 13:55:00
8:15 AM,33.8,24.8,70,30.38,10.0,Calm,Calm,-,N/A,,Clear,0,2012-11-15 14:15:00
8:35 AM,35.6,26.6,70,30.39,10.0,NNE,3.5,-,N/A,,Clear,20,2012-11-15 14:35:00
8:55 AM,37.4,26.6,65,30.39,10.0,NNE,3.5,-,N/A,,Clear,20,2012-11-15 14:55:00
9:15 AM,37.4,26.6,65,30.39,10.0,Calm,Calm,-,N/A,,Clear,0,2012-11-15 15:15:00
9:35 AM,39.2,26.6,61,30.40,10.0,Calm,Calm,-,N/A,,Clear,0,2012-11-15 15:35:00
9:55 AM,41.0,28.4,61,30.39,10.0,Calm,Calm,-,N/A,,Clear,0,2012-11-15 15:55:00
10:15 AM,41.0,26.6,57,30.39,10.0,NNE,3.5,-,N/A,,Clear,20,2012-11-15 16:15:00
10:35 AM,42.8,26.6,53,30.39,10.0,Calm,Calm,-,N/A,,Clear,0,2012-11-15 16:35:00
10:55 AM,44.6,26.6,49,30.39,10.0,North,4.6,-,N/A,,Clear,350,2012-11-15 16:55:00
11:15 AM,44.6,28.4,53,30.38,10.0,North,5.8,-,N/A,,Clear,360,2012-11-15 17:15:00
11:35 AM,44.6,28.4,53,30.36,10.0,North,6.9,-,N/A,,Clear,10,2012-11-15 17:35:00
11:55 AM,46.4,28.4,50,30.36,10.0,NNE,6.9,-,N/A,,Clear,20,2012-11-15 17:55:00
12:15 PM,46.4,30.2,53,30.36,10.0,Calm,Calm,-,N/A,,Clear,0,2012-11-15 18:15:00
12:35 PM,46.4,28.4,50,30.35,10.0,NNE,5.8,-,N/A,,Clear,20,2012-11-15 18:35:00
12:55 PM,46.4,28.4,50,30.34,10.0,ENE,4.6,-,N/A,,Clear,70,2012-11-15 18:55:00
1:15 PM,46.4,30.2,53,30.33,10.0,NNE,4.6,-,N/A,,Clear,30,2012-11-15 19:15:00
1:35 PM,48.2,30.2,50,30.33,10.0,Calm,Calm,-,N/A,,Clear,0,2012-11-15 19:35:00
1:55 PM,48.2,28.4,46,30.33,10.0,Calm,Calm,-,N/A,,Clear,0,2012-11-15 19:55:00
2:15 PM,48.2,28.4,46,30.33,10.0,NNE,5.8,-,N/A,,Clear,30,2012-11-15 20:15:00
2:35 PM,48.2,30.2,50,30.32,10.0,NNE,5.8,-,N/A,,Clear,20,2012-11-15 20:35:00
2:55 PM,48.2,30.2,50,30.32,10.0,NNW,5.8,-,N/A,,Clear,330,2012-11-15 20:55:00
3:15 PM,48.2,30.2,50,30.32,10.0,NNW,4.6,-,N/A,,Clear,340,2012-11-15 21:15:00
3:36 PM,46.4,28.4,50,30.32,9.0,NNW,5.8,-,N/A,,Clear,330,2012-11-15 21:36:00
3:55 PM,46.4,30.2,53,30.33,10.0,NNW,6.9,-,N/A,,Clear,330,2012-11-15 21:55:00
4:15 PM,46.4,28.4,50,30.33,10.0,NNW,5.8,-,N/A,,Clear,340,2012-11-15 22:15:00
4:35 PM,44.6,28.4,53,30.33,10.0,NNW,4.6,-,N/A,,Clear,330,2012-11-15 22:35:00
5:15 PM,42.8,28.4,57,30.34,10.0,NNW,3.5,-,N/A,,Clear,330,2012-11-15 23:15:00
5:55 PM,39.2,26.6,61,30.35,10.0,NNW,3.5,-,N/A,,Clear,330,2012-11-15 23:55:00
6:15 PM,37.4,26.6,65,30.35,10.0,Calm,Calm,-,N/A,,Clear,0,2012-11-16 00:15:00
6:35 PM,35.6,24.8,65,30.35,10.0,Calm,Calm,-,N/A,,Clear,0,2012-11-16 00:35:00
6:55 PM,35.6,24.8,65,30.36,10.0,Calm,Calm,-,N/A,,Clear,0,2012-11-16 00:55:00
7:15 PM,33.8,23.0,65,30.36,10.0,Calm,Calm,-,N/A,,Clear,0,2012-11-16 01:15:00
7:35 PM,33.8,24.8,70,30.36,10.0,Calm,Calm,-,N/A,,Clear,0,2012-11-16 01:35:00
8:15 PM,32.0,23.0,69,30.37,10.0,Calm,Calm,-,N/A,,Clear,0,2012-11-16 02:15:00
8:35 PM,33.8,24.8,70,30.37,10.0,Calm,Calm,-,N/A,,Clear,0,2012-11-16 02:35:00
8:55 PM,33.8,23.0,65,30.37,10.0,Calm,Calm,-,N/A,,Clear,0,2012-11-16 02:55:00
9:15 PM,33.8,24.8,70,30.37,10.0,Calm,Calm,-,N/A,,Clear,0,2012-11-16 03:15:00
9:55 PM,32.0,23.0,69,30.37,10.0,Calm,Calm,-,N/A,,Clear,0,2012-11-16 03:55:00
10:15 PM,30.2,21.2,69,30.37,10.0,Calm,Calm,-,N/A,,Clear,0,2012-11-16 04:15:00
10:35 PM,30.2,23.0,75,30.37,10.0,Calm,Calm,-,N/A,,Clear,0,2012-11-16 04:35:00
10:55 PM,30.2,21.2,69,30.37,10.0,Calm,Calm,-,N/A,,Clear,0,2012-11-16 04:55:00
11:15 PM,30.2,21.2,69,30.38,10.0,Calm,Calm,-,N/A,,Clear,0,2012-11-16 05:15:00
11:35 PM,30.2,21.2,69,30.38,10.0,WSW,3.5,-,N/A,,Clear,250,2012-11-16 05:35:00
11:55 PM,30.2,21.2,69,30.38,10.0,Calm,Calm,-,N/A,,Clear,0,2012-11-16 05:55:00